Total_Precipitation_Accumulation
1.78 1.80 1.88 1.86 1.86 1.95 1.92 1.86 1.90 2.04 2.06 1.99 1.93 1.94 1.94 1.92 1.99 2.04 1.83 1.94 2.09 2.15 2.18 2.33 2.38 2.50 2.57 2.56 2.69 2.84 3.13 3.38 2.99 2.39 2.28 2.28 2.44 2.41 2.29 2.05 1.83 1.76 1.61
1.80 1.94 2.07 2.14 2.18 2.16 1.97 1.86 1.91 1.98 1.99 2.00 1.98 1.92 1.83 1.87 2.08 2.14 2.01 2.09 2.17 2.15 2.18 2.33 2.23 2.42 2.60 2.55 2.66 2.67 2.81 3.17 3.01 2.70 2.64 2.59 2.58 2.47 2.45 2.29 1.97 1.77 1.70
2.03 2.25 2.47 2.58 2.44 2.27 2.16 2.03 2.03 2.02 2.04 2.10 2.12 2.12 2.11 2.16 2.19 2.26 2.35 2.31 2.22 2.14 2.19 2.19 2.15 2.36 2.38 2.48 2.60 2.58 2.59 2.74 2.95 2.85 2.78 2.86 2.80 2.68 2.63 2.45 2.25 2.20 1.86
1.74 2.06 2.32 2.48 2.34 2.24 2.22 2.07 1.98 1.98 2.06 2.17 2.19 2.31 2.50 2.56 2.56 2.53 2.43 2.35 2.30 2.25 2.20 2.15 2.10 2.13 2.20 2.32 2.41 2.51 2.58 2.72 2.87 2.89 2.92 3.04 3.00 3.03 3.04 2.82 2.67 2.58 2.23
1.59 1.72 1.97 2.25 2.11 1.86 1.80 1.76 1.70 1.78 1.92 2.24 2.39 2.47 2.75 2.89 2.71 2.73 2.66 2.54 2.54 2.34 2.21 2.10 1.96 1.99 2.08 2.13 2.05 2.20 2.36 2.50 2.55 2.64 2.74 2.96 3.01 3.11 3.10 2.96 2.83 2.85 2.66
1.50 1.64 1.81 1.93 1.76 1.59 1.48 1.51 1.54 1.65 1.83 2.02 2.15 2.27 2.34 2.18 2.34 2.38 2.36 2.39 2.42 2.30 2.21 2.14 2.00 1.91 1.89 1.84 1.73 1.76 1.88 2.03 2.22 2.47 2.56 2.76 2.96 3.12 3.34 3.37 3.21 3.03 2.87
1.54 1.56 1.69 1.78 1.76 1.66 1.50 1.53 1.61 1.71 1.83 1.90 1.95 1.99 1.96 2.02 2.07 1.85 1.79 1.78 1.96 2.05 2.11 2.10 1.85 1.70 1.82 1.73 1.73 1.70 1.70 1.83 1.96 2.22 2.40 2.51 2.76 2.98 3.26 3.37 3.38 3.27 3.09
1.59 1.62 1.77 1.92 1.93 1.88 1.83 1.81 1.91 1.98 1.95 1.95 2.00 2.02 2.06 2.01 1.92 1.68 1.66 1.62 1.76 1.88 1.97 2.01 1.96 1.90 1.90 1.95 1.85 1.71 1.60 1.69 1.80 1.76 1.81 1.99 2.28 2.69 2.91 2.96 3.15 3.18 3.04
1.75 1.80 1.89 2.04 2.10 2.14 2.21 2.25 2.30 2.28 2.13 2.10 2.19 2.21 2.18 2.10 1.98 1.76 1.76 1.68 1.79 1.83 1.85 1.85 1.85 1.80 1.91 1.81 1.71 1.65 1.62 1.64 1.64 1.62 1.56 1.61 1.77 2.03 2.41 2.59 2.69 2.66 2.53
1.93 2.08 2.11 2.25 2.37 2.34 2.43 2.56 2.67 2.69 2.58 2.61 2.48 2.32 2.20 2.11 2.12 1.80 1.71 1.62 1.70 1.77 1.86 1.80 1.73 1.61 1.62 1.58 1.55 1.64 1.60 1.60 1.69 1.62 1.50 1.42 1.38 1.55 1.91 2.10 2.21 2.28 2.16
2.17 2.24 2.28 2.43 2.57 2.68 2.87 3.05 3.07 2.99 3.00 2.90 2.62 2.49 2.46 2.40 2.20 1.74 1.59 1.49 1.55 1.72 1.77 1.76 1.69 1.69 1.49 1.43 1.41 1.42 1.44 1.47 1.60 1.63 1.58 1.51 1.50 1.52 1.61 1.82 2.04 2.18 2.15
2.26 2.35 2.50 2.60 2.61 2.72 3.07 3.20 3.20 3.15 3.01 2.83 2.68 2.47 2.35 2.27 2.04 1.75 1.56 1.57 1.67 1.74 1.73 1.69 1.70 1.63 1.43 1.37 1.29 1.26 1.31 1.28 1.29 1.40 1.40 1.34 1.34 1.37 1.47 1.66 1.88 2.04 2.11
2.22 2.38 2.55 2.69 2.89 3.08 3.23 3.20 3.13 3.08 2.96 2.79 2.65 2.43 2.36 2.42 2.32 1.99 1.78 1.75 1.76 1.67 1.64 1.69 1.63 1.50 1.30 1.14 1.15 1.15 1.09 1.04 1.14 1.23 1.24 1.17 1.16 1.22 1.34 1.53 1.72 1.90 1.92
2.11 2.24 2.37 2.46 2.53 2.66 2.90 2.87 2.73 2.70 2.75 2.74 2.69 2.56 2.49 2.47 2.41 2.16 1.90 1.86 1.82 1.74 1.67 1.65 1.52 1.42 1.25 1.13 1.13 1.07 1.00 1.05 1.15 1.18 1.22 1.22 1.21 1.24 1.28 1.37 1.53 1.69 1.78
1.90 1.97 2.01 2.06 2.13 2.23 2.33 2.43 2.43 2.43 2.43 2.45 2.44 2.41 2.29 2.19 2.28 2.19 1.96 1.94 1.99 2.00 1.93 1.80 1.64 1.52 1.36 1.24 1.21 1.24 1.27 1.32 1.29 1.28 1.35 1.40 1.37 1.30 1.27 1.34 1.56 1.66 1.65
1.92 1.88 1.87 1.90 1.95 1.96 2.05 2.10 2.13 2.02 1.92 1.83 1.78 1.77 1.72 1.78 1.92 1.84 1.74 1.79 1.87 1.94 1.81 1.67 1.64 1.58 1.48 1.44 1.46 1.48 1.48 1.49 1.44 1.46 1.48 1.51 1.50 1.41 1.34 1.38 1.52 1.61 1.60
2.15 2.04 1.95 1.87 1.86 1.88 1.90 1.98 1.99 1.91 1.76 1.60 1.49 1.42 1.38 1.46 1.57 1.55 1.55 1.64 1.78 1.88 1.75 1.71 1.69 1.66 1.57 1.54 1.57 1.56 1.51 1.51 1.56 1.56 1.56 1.57 1.64 1.67 1.66 1.61 1.62 1.71 1.73
2.25 2.14 1.97 1.85 1.80 1.79 1.81 1.85 1.95 2.04 1.96 1.77 1.54 1.36 1.25 1.20 1.25 1.33 1.47 1.57 1.63 1.65 1.59 1.64 1.64 1.65 1.66 1.65 1.64 1.63 1.60 1.62 1.62 1.62 1.68 1.72 1.81 1.87 1.91 1.86 1.80 1.80 1.84
2.06 1.96 1.81 1.75 1.75 1.76 1.81 1.83 1.81 1.86 1.84 1.80 1.65 1.46 1.33 1.22 1.21 1.28 1.31 1.30 1.44 1.51 1.53 1.53 1.53 1.54 1.58 1.61 1.59 1.59 1.59 1.62 1.65 1.70 1.73 1.76 1.84 1.87 1.84 1.81 1.83 1.91 1.94
2.04 2.01 1.84 1.76 1.82 1.86 1.85 1.87 1.85 1.92 1.91 1.85 1.67 1.47 1.36 1.24 1.15 1.19 1.21 1.29 1.44 1.47 1.47 1.44 1.46 1.48 1.53 1.59 1.63 1.64 1.65 1.68 1.74 1.83 1.83 1.84 1.89 1.89 1.83 1.84 1.92 1.98 1.94
1.99 1.96 1.87 1.78 1.82 1.93 1.95 1.94 1.90 1.93 1.90 1.89 1.75 1.57 1.45 1.25 1.22 1.25 1.31 1.41 1.51 1.49 1.48 1.46 1.44 1.39 1.40 1.46 1.50 1.54 1.59 1.66 1.70 1.77 1.83 1.87 1.92 1.91 1.87 1.92 1.99 2.05 2.08
1.87 1.81 1.68 1.54 1.59 1.69 1.75 1.80 1.83 1.80 1.81 1.81 1.75 1.59 1.47 1.24 1.25 1.31 1.35 1.42 1.46 1.48 1.46 1.46 1.39 1.29 1.28 1.33 1.39 1.51 1.57 1.59 1.65 1.76 1.82 1.85 1.92 1.92 1.98 2.04 2.06 2.12 2.20
1.71 1.65 1.53 1.37 1.37 1.51 1.57 1.64 1.70 1.67 1.65 1.64 1.57 1.48 1.39 1.30 1.27 1.28 1.33 1.36 1.41 1.43 1.40 1.37 1.31 1.27 1.31 1.37 1.44 1.52 1.59 1.61 1.60 1.64 1.72 1.79 1.87 1.92 2.01 2.05 2.04 2.13 2.18
1.63 1.59 1.53 1.37 1.34 1.49 1.59 1.68 1.65 1.61 1.61 1.61 1.52 1.48 1.41 1.41 1.39 1.34 1.33 1.37 1.40 1.38 1.36 1.34 1.28 1.25 1.30 1.39 1.44 1.44 1.47 1.50 1.52 1.58 1.65 1.76 1.82 1.89 1.97 1.99 1.96 1.97 2.02
1.59 1.60 1.64 1.53 1.48 1.51 1.57 1.64 1.59 1.54 1.51 1.49 1.50 1.54 1.54 1.49 1.48 1.50 1.49 1.49 1.46 1.40 1.33 1.29 1.32 1.31 1.31 1.32 1.34 1.35 1.40 1.31 1.30 1.36 1.42 1.55 1.62 1.73 1.81 1.80 1.84 1.90 1.94
1.56 1.58 1.68 1.64 1.58 1.58 1.66 1.70 1.69 1.64 1.58 1.53 1.52 1.54 1.61 1.64 1.63 1.61 1.59 1.59 1.56 1.51 1.43 1.37 1.32 1.28 1.29 1.26 1.23 1.25 1.21 1.08 1.08 1.21 1.28 1.36 1.47 1.59 1.64 1.65 1.62 1.69 1.75